Retour au catalogue

SATCOM 3 DEB

LostHEO
NORAD 32986·DEBRIS·🇺🇸 United States

Lancé Dec 7, 1979 depuis Cape Canaveral Space Force Station

Loading…

Prochains Passages (prochaines 24 heures)

TLE

PériméSource: Space-Track

Époque: Jul 31, 2026, 18:59 UTC

1 32986U 79101M   26212.79159102 -.00000084  00000-0  00000+0 0  9995
2 32986   8.8886  74.0930 4818954 123.1224 201.3738  1.82660073123457

Suivez SATCOM 3 DEB en temps réel avec AllMySat

Download on the App Store